Regional Weather Roundup
Issued by NWS

Home | Current Version | Previous Version | Graphics & Text | Print | Product List | Glossary On
Versions: 1 2 3 4 5 6 7 8 9 10 11 12 13 14 15 16 17 18 19 20 21 22 23 24 25 26 27 28 29 30 31 32 33 34 35 36 37 38 39 40 41 42 43 44 45 46 47 48 49 50
000
ASUS43 KMPX 022010
RWRMN
WEATHER ROUNDUP FOR MINNESOTA
NATIONAL WEATHER SERVICE TWIN CITIES/CHANHASSEN MN
300 PM CDT WED SEP 02 2015


NOTE: "FAIR" INDICATES FEW OR NO CLOUDS BELOW 12,000 FEET WITH NO
SIGNIFICANT WEATHER AND/OR OBSTRUCTIONS TO VISIBILITY. N/A MEANS
CURRENT SKY AND/OR WEATHER CONDITIONS ARE NOT AVAILABLE.

MNZ060>063-068>070-022100-
   Twin Cities Metro

CITY           SKY/WX    TMP DP  RH WIND       PRES   REMARKS
TWIN CITIES    CLOUDY    73  66  78 E10       29.91S
ST PAUL        CLOUDY    72  67  84 VRB6      29.92S
CRYSTAL        CLOUDY    74  66  76 E9        29.91S
BLAINE         CLOUDY    72  68  88 E13       29.93S
LAKEVILLE      PTSUNNY   75  72  88 NE8       29.90S
EDEN PRAIRIE   CLOUDY    76  69  79 NE13      29.89R
SOUTH ST PAUL  MOSUNNY   73  66  78 NE6       29.91F
LAKE ELMO      CLOUDY    70  66  88 E7        29.94F
$$
MNZ001>005-007-008-013>017-022>024-027-028-022100-
   Northwest Minnesota

CITY           SKY/WX    TMP DP  RH WIND       PRES   REMARKS
BEMIDJI        SUNNY     83  64  53 SE13G20   29.90S
HALLOCK        SUNNY     90  63  40 S16G29    29.79F HX  90
ROSEAU         SUNNY     88  70  55 SE10G17   29.85S HX  92
WARROAD        SUNNY     86  72  62 S13       29.86S HX  92
THIEF RVR FALL SUNNY     88  63  42 S12G21    29.84S
CROOKSTON      SUNNY     88  63  42 SE15      29.81F
FOSSTON        SUNNY     88  61  40 SE10G17   29.86F
DETROIT LAKES  SUNNY     86  63  45 SE15G21   29.88S
MOORHEAD       SUNNY     90  64  43 SE10G21   29.82S HX  91
PARK RAPIDS    SUNNY     84  62  47 SE15      29.90S
MAHNOMEN       FAIR      85  65  51 SE13G20   29.85F
$$
MNZ006-009>011-018-025>026-022100-
   North Central Minnesota

CITY           SKY/WX    TMP DP  RH WIND       PRES   REMARKS
BAUDETTE       MOSUNNY   86  70  58 S9        29.88S HX  90
FLAG ISLAND    SUNNY     77  70  78 S9        29.85F
INTL FALLS     SUNNY     82  66  58 SE7       29.91F
WASKISH        SUNNY     82  64  54 SE9G16    29.89S
BIG FORK       SUNNY     84  64  51 SE6       29.92F
LONGVILLE      SUNNY     82  64  54 SE8       29.91S
GRAND RAPIDS     N/A     81  63  54 S9        29.93S
CRANE LAKE     MOSUNNY   77  63  61 SE5       29.96F
ORR            SUNNY     81  57  44 SE3       29.91F
COOK           SUNNY     81  61  50 SE7       29.95S
WALKER         FAIR      81  65  58 E7        29.90F
$$
MNZ012-019>021-037-022100-
   Northeast Minnesota

CITY           SKY/WX    TMP DP  RH WIND       PRES   REMARKS
DULUTH         MOSUNNY   75  66  73 SE9       29.97S
ELY            CLOUDY    73  63  68 SE6       29.98S
HIBBING        SUNNY     79  66  64 E14       29.95R
EVELETH        MOSUNNY   73  63  68 SE9       29.98R
DULUTH HARBOR  PTSUNNY   64  61  88 NE20      29.96R
TWO HARBORS    CLOUDY    72  66  83 NE9       29.97F
SILVER BAY     CLOUDY    70  64  83 E5        29.99R
GRAND MARAIS     N/A     63  55  75 CALM      29.98R
G MARAIS ARPRT CLOUDY    72  55  56 CALM      30.02R
$$
MNZ029>031-032-039>041-046>048-054>057-064-022100-
   West Central Minnesota

CITY           SKY/WX    TMP DP  RH WIND       PRES   REMARKS
FERGUS FALLS   SUNNY     84  66  54 SE16      29.83S
WHEATON        SUNNY     84  70  61 SE15      29.83F
MORRIS         SUNNY     84  72  65 E14       29.84S
ALEXANDRIA     MOSUNNY   80  68  66 E15       29.91R
ELBOW LAKE     FAIR      82  70  66 SE14G23   29.86S
WADENA         SUNNY     82  66  57 SE15G21   29.89S
GLENWOOD       SUNNY     81  70  69 E14       29.90S
APPLETON       SUNNY     86  72  62 E12       29.83S HX  92
BENSON         MOSUNNY   84  70  61 SE9       29.85S
ORTONVILLE     MOSUNNY   84  72  65 SE12G17   29.83S
MADISON        MOSUNNY   84  73  70 E8        29.82F HX  91
WILLMAR        PTSUNNY   81  73  78 E10       29.88S
$$
MNZ033>034-036-042>043-049>051-058-059-022100-
   Central Minnesota

CITY           SKY/WX    TMP DP  RH WIND       PRES   REMARKS
ST CLOUD       PTSUNNY   77  69  76 E9        29.91S
SAUK CENTRE    MOCLDY    80  70  73 SE10G18   29.90S
PAYNESVILLE    CLOUDY    79  69  72 NE13      29.90S
AITKIN         SUNNY     81  68  65 SE9       29.92S
PINE RIVER     MOSUNNY   81  66  61 SE10G16   29.94F
BRAINERD       MOSUNNY   77  66  68 E8G18     29.92R
STAPLES        MOSUNNY   81  64  57 SE9       29.90S
LONG PRAIRIE   PTSUNNY   77  68  73 E9        29.91S
LITTLE FALLS   MOSUNNY   79  64  61 E10G16    29.91R
LITCHFIELD     SUNNY     81  73  78 E10       29.90S
BUFFALO        CLOUDY    74  67  77 E12       29.93R
MAPLE LAKE     CLOUDY    76  71  83 E9        29.92S
$$
MNZ037-044-045-052-053-022100-
   East Central Minnesota

CITY           SKY/WX    TMP DP  RH WIND       PRES   REMARKS
PRINCETON      CLOUDY    73  66  78 E12       29.93S
MORA           CLOUDY    70  64  83 SE12      29.96F
CAMBRIDGE      PTSUNNY   75  64  69 SE7       29.91F
RUSH CITY      CLOUDY    73  66  80 SE6       29.93F
MOOSE LAKE     PTSUNNY   77  64  65 SE5       29.93R
HINCKLEY       MOCLDY    75  66  73 SE10G16   29.94F
CLOQUET        PTSUNNY   77  63  61 SE7       29.96R
MCGREGOR       SUNNY     79  64  61 SE10G16   29.94S
$$
MNZ071>073-080-081-089-090-097-098-022100-
   Southwest Minnesota

CITY           SKY/WX    TMP DP  RH WIND       PRES   REMARKS
MONTEVIDEO     SUNNY     90  73  58 SE8       29.85F HX  98
GRANITE FALLS  SUNNY     86  73  66 SE7       29.85F HX  93
CANBY          SUNNY     88  73  60 SE7       29.83F HX  95
MARSHALL       SUNNY     88  72  58 SE8       29.85S HX  94
REDWOOD FALLS  SUNNY     86  73  65 SE8       29.84F HX  93
OLIVIA         PTSUNNY   81  70  69 E6        29.85F
PIPESTONE      SUNNY     86  72  62 S9        29.86S HX  92
WINDOM         SUNNY     86  72  62 S9        29.86F HX  92
WORTHINGTON    SUNNY     82  72  69 S10       29.86F
JACKSON        SUNNY     84  72  65 S14       29.88F
TRACY          SUNNY     87  75  68 S5        29.85F HX  96
SLAYTON        SUNNY     85  74  70 SE9       29.87F HX  92
$$
MNZ065>067-074>077-082>085-091>093-022100-
   South Central Minnesota

CITY           SKY/WX    TMP DP  RH WIND       PRES   REMARKS
MANKATO        PTSUNNY   82  72  69 SW5       29.87S
NEW ULM        MOSUNNY   84  72  65 S5        29.85F
ST JAMES       SUNNY     86  73  66 S10       29.86F HX  93
FAIRMONT       SUNNY     84  66  54 S14       29.86F
GLENCOE        CLOUDY    80  74  82 NE6       29.89R
FARIBAULT      PTSUNNY   82  72  69 S3        29.89S
OWATONNA       MOSUNNY   82  72  69 SW3       29.89F
WASECA         PTSUNNY   82  72  69 SW8       29.90S
ALBERT LEA     MOSUNNY   84  70  61 SW10      29.89S
$$
MNZ078>079-086>088-094>096-022100-
   Southeast Minnesota

CITY           SKY/WX    TMP DP  RH WIND       PRES   REMARKS
ROCHESTER      CLOUDY    81  71  71 S9        29.92F
RED WING       PTSUNNY   81  72  74 NE6       29.89F
STANTON        CLOUDY    82  70  66 E3        29.89S
DODGE CENTER   CLOUDY    81  70  69 SW7       29.91S
WINONA         CLOUDY    82  66  57 S7        29.91F
AUSTIN         PTSUNNY   84  72  65 SW13G18   29.90S
PRESTON        CLOUDY    80  68  68 S12G17    29.93F
$$
ABBREVIATIONS USED IN REMARKS
   TC - TEMPERATURES IN CELSIUS
  WCI - WIND CHILL INDEX
   HX - HEAT INDEX
  VSB - VISIBILITY
$$


USA.gov is the U.S. government's official web portal to all federal, state and local government web resources and services.